This is the latest recevied weather packets stored in our database for station/object IN3XSV-13. If no packets are shown the sender has not sent any weather packets the latest 10 day(s).
| Time | Temp. | Humidity | Pressure | Rain* | Wind** | Luminosity | Snow |
|---|---|---|---|---|---|---|---|
| 1777542841 | 17.78° C | 57% | 9962.3 hPa | 0 mm | - | - | - |
| 1777542541 | 17.78° C | 57% | 9962.4 hPa | 0 mm | - | - | - |
| 1777542241 | 17.78° C | 57% | 9962.4 hPa | 0 mm | - | - | - |
| 1777541941 | 17.78° C | 57% | 9962.3 hPa | 0 mm | - | - | - |
| 1777541642 | 17.22° C | 58% | 9962.3 hPa | 0 mm | - | - | - |
| 1777541342 | 17.78° C | 58% | 9962.4 hPa | 0 mm | - | - | - |
| 1777541042 | 17.78° C | 57% | 9962.5 hPa | 0 mm | - | - | - |
| 1777540742 | 17.78° C | 57% | 9962.5 hPa | 0 mm | - | - | - |
| 1777540441 | 17.22° C | 57% | 9962.5 hPa | 0 mm | - | - | - |
| 1777540141 | 16.67° C | 58% | 9962.6 hPa | 0 mm | - | - | - |
| 1777539842 | 16.67° C | 59% | 9962.6 hPa | 0 mm | - | - | - |
| 1777539542 | 17.22° C | 57% | 9962.6 hPa | 0 mm | - | - | - |
| 1777539242 | 17.22° C | 59% | 9962.6 hPa | 0 mm | - | - | - |
| 1777538942 | 16.67° C | 59% | 9962.5 hPa | 0 mm | - | - | - |
| 1777538642 | 16.67° C | 58% | 9962.5 hPa | 0 mm | - | - | - |
| 1777538342 | 16.67° C | 60% | 9962.4 hPa | 0 mm | - | - | - |
| 1777538042 | 16.67° C | 59% | 9962.5 hPa | 0 mm | - | - | - |
| 1777537742 | 17.22° C | 59% | 9962.5 hPa | 0 mm | - | - | - |
| 1777537442 | 16.67° C | 60% | 9962.4 hPa | 0 mm | - | - | - |
| 1777537142 | 17.78° C | 59% | 9962.4 hPa | 0 mm | - | - | - |
| 1777536842 | 17.22° C | 60% | 9962.3 hPa | 0 mm | - | - | - |
| 1777536542 | 16.67° C | 59% | 9962.4 hPa | 0 mm | - | - | - |
| 1777536242 | 16.67° C | 59% | 9962.3 hPa | 0 mm | - | - | - |
| 1777535942 | 16.67° C | 59% | 9962.3 hPa | 0 mm | - | - | - |
| 1777535642 | 16.67° C | 63% | 9962.3 hPa | 0 mm | - | - | - |
* Rain latest hour (hover to see other rain measurements)
** Current wind speed in m/s (hover to see current wind gust speed)